Time,TemperatureF,DewpointF,PressureIn,WindDirection,WindDirectionDegrees,WindSpeedMPH,WindSpeedGustMPH,Humidity,HourlyPrecipIn,Conditions,Clouds,dailyrainin,SoftwareType,DateUTC
2013-03-03 00:00:00,31.5,15.9,29.95,NNW,329,3.0,13.0,52,0.00,OVC,,0.00,WeatherDisplay:10.37,2013-03-03 05:00:00,
2013-03-03 00:15:00,31.3,16.1,29.95,NW,315,2.0,7.0,53,0.00,OVC,,0.00,WeatherDisplay:10.37,2013-03-03 05:15:00,
2013-03-03 00:30:00,31.2,16.5,29.95,WNW,299,1.0,7.0,54,0.00,OVC,,0.00,WeatherDisplay:10.37,2013-03-03 05:30:00,
2013-03-03 00:45:00,31.3,16.5,29.95,North,352,2.0,9.0,54,0.00,OVC,,0.00,WeatherDisplay:10.37,2013-03-03 05:45:00,
2013-03-03 01:00:00,31.1,16.4,29.95,NW,317,3.0,9.0,54,0.00,OVC,,0.00,WeatherDisplay:10.37,2013-03-03 06:00:00,
2013-03-03 01:15:00,30.8,16.5,29.95,NW,319,2.0,8.0,55,0.00,OVC,,0.00,WeatherDisplay:10.37,2013-03-03 06:15:00,
2013-03-03 01:30:00,30.5,16.3,29.95,NW,321,2.0,7.0,55,0.00,OVC,,0.00,WeatherDisplay:10.37,2013-03-03 06:30:00,
2013-03-03 01:45:00,30.2,16.4,29.95,NW,313,2.0,6.0,56,0.00,OVC,,0.00,WeatherDisplay:10.37,2013-03-03 06:45:00,
2013-03-03 02:00:00,30.2,16.0,29.95,NW,326,6.0,9.0,55,0.00,OVC,,0.00,WeatherDisplay:10.37,2013-03-03 07:00:00,
2013-03-03 02:15:00,30.5,15.8,29.95,NNW,334,6.0,12.0,54,0.00,OVC,,0.00,WeatherDisplay:10.37,2013-03-03 07:15:00,
2013-03-03 02:30:00,30.7,15.1,29.94,NNW,333,3.0,14.0,52,0.00,OVC,,0.00,WeatherDisplay:10.37,2013-03-03 07:30:00,
2013-03-03 02:45:00,30.6,14.6,29.94,NNW,329,6.0,14.0,51,0.00,OVC,,0.00,WeatherDisplay:10.37,2013-03-03 07:45:00,
2013-03-03 03:00:00,30.5,14.5,29.94,NW,322,6.0,16.0,51,0.00,OVC,,0.00,WeatherDisplay:10.37,2013-03-03 08:00:00,
2013-03-03 03:15:00,30.3,13.9,29.93,NNW,331,7.0,15.0,50,0.00,OVC,,0.00,WeatherDisplay:10.37,2013-03-03 08:15:00,
2013-03-03 03:30:00,30.0,13.1,29.93,NNW,340,6.0,16.0,49,0.00,OVC,,0.00,WeatherDisplay:10.37,2013-03-03 08:30:00,
2013-03-03 03:45:00,29.9,13.5,29.93,NNW,348,6.0,13.0,50,0.00,OVC,,0.00,WeatherDisplay:10.37,2013-03-03 08:45:00,
2013-03-03 04:00:00,29.8,13.4,29.93,NNW,339,2.0,10.0,50,0.00,OVC,,0.00,WeatherDisplay:10.37,2013-03-03 09:00:00,
2013-03-03 04:15:00,29.8,13.8,29.93,North,349,5.0,8.0,51,0.00,OVC,,0.00,WeatherDisplay:10.37,2013-03-03 09:15:00,
2013-03-03 04:30:00,29.8,13.9,29.94,NNW,343,3.0,9.0,51,0.00,OVC,,0.00,WeatherDisplay:10.37,2013-03-03 09:30:00,
2013-03-03 04:45:00,29.7,13.8,29.94,North,350,3.0,8.0,51,0.00,OVC,,0.00,WeatherDisplay:10.37,2013-03-03 09:45:00,
2013-03-03 05:00:00,29.7,14.2,29.94,NNW,329,5.0,8.0,52,0.00,OVC,,0.00,WeatherDisplay:10.37,2013-03-03 10:00:00,
2013-03-03 05:15:00,29.7,14.6,29.94,NNW,340,2.0,10.0,53,0.00,OVC,,0.00,WeatherDisplay:10.37,2013-03-03 10:15:00,
2013-03-03 05:30:00,29.6,14.2,29.95,NNW,334,7.0,14.0,52,0.00,OVC,,0.00,WeatherDisplay:10.37,2013-03-03 10:30:00,
2013-03-03 05:45:00,29.4,13.5,29.95,NNW,344,5.0,13.0,51,0.00,OVC,,0.00,WeatherDisplay:10.37,2013-03-03 10:45:00,
2013-03-03 06:00:00,29.1,13.6,29.95,NNW,337,6.0,12.0,52,0.00,OVC,,0.00,WeatherDisplay:10.37,2013-03-03 11:00:00,
2013-03-03 06:15:00,28.8,14.2,29.95,NNW,335,3.0,8.0,54,0.00,OVC,,0.00,WeatherDisplay:10.37,2013-03-03 11:15:00,
2013-03-03 06:30:00,28.4,13.9,29.95,NNW,330,2.0,7.0,54,0.00,SCT,,0.00,WeatherDisplay:10.37,2013-03-03 11:30:00,
2013-03-03 06:45:00,28.1,13.6,29.96,NNW,327,5.0,9.0,54,0.00,SCT,,0.00,WeatherDisplay:10.37,2013-03-03 11:45:00,
2013-03-03 07:00:00,27.9,13.4,29.96,NNW,338,5.0,12.0,54,0.00,SCT,,0.00,WeatherDisplay:10.37,2013-03-03 12:00:00,
2013-03-03 07:15:00,28.0,13.5,29.96,NNW,344,3.0,8.0,54,0.00,SCT,,0.00,WeatherDisplay:10.37,2013-03-03 12:15:00,
2013-03-03 07:30:00,28.2,13.7,29.97,NW,325,3.0,9.0,54,0.00,FEW,,0.00,WeatherDisplay:10.37,2013-03-03 12:30:00,
2013-03-03 07:45:00,28.9,13.9,29.97,NNW,329,5.0,12.0,53,0.00,FEW,,0.00,WeatherDisplay:10.37,2013-03-03 12:45:00,
2013-03-03 08:00:00,29.5,14.0,29.97,NNW,335,5.0,8.0,52,0.00,FEW,,0.00,WeatherDisplay:10.37,2013-03-03 13:00:00,
2013-03-03 08:15:00,30.2,14.7,29.97,NW,325,5.0,13.0,52,0.00,FEW,,0.00,WeatherDisplay:10.37,2013-03-03 13:15:00,
2013-03-03 08:30:00,30.8,14.3,29.97,North,349,6.0,15.0,50,0.00,CLR,,0.00,WeatherDisplay:10.37,2013-03-03 13:30:00,
2013-03-03 08:45:00,31.5,14.5,29.97,NNW,328,9.0,17.0,49,0.00,CLR,,0.00,WeatherDisplay:10.37,2013-03-03 13:45:00,
2013-03-03 09:00:00,31.6,14.6,29.98,NNW,344,6.0,18.0,49,0.00,CLR,,0.00,WeatherDisplay:10.37,2013-03-03 14:00:00,
2013-03-03 09:15:00,32.4,14.9,29.98,NNW,333,9.0,17.0,48,0.00,CLR,,0.00,WeatherDisplay:10.37,2013-03-03 14:15:00,
2013-03-03 09:30:00,32.6,15.1,29.97,NW,304,5.0,15.0,48,0.00,CLR,,0.00,WeatherDisplay:10.37,2013-03-03 14:30:00,
2013-03-03 09:45:00,33.0,15.4,29.98,North,355,9.0,17.0,48,0.00,CLR,,0.00,WeatherDisplay:10.37,2013-03-03 14:45:00,
2013-03-03 10:00:00,33.6,16.0,29.98,NW,325,8.0,16.0,48,0.00,CLR,,0.00,WeatherDisplay:10.37,2013-03-03 15:00:00,
2013-03-03 10:15:00,34.1,15.9,29.97,NW,323,6.0,15.0,47,0.00,CLR,,0.00,WeatherDisplay:10.37,2013-03-03 15:15:00,
2013-03-03 10:30:00,35.3,17.0,29.97,NNW,339,7.0,18.0,47,0.00,CLR,,0.00,WeatherDisplay:10.37,2013-03-03 15:30:00,
2013-03-03 10:45:00,34.5,16.3,29.97,NW,318,6.0,16.0,47,0.00,CLR,,0.00,WeatherDisplay:10.37,2013-03-03 15:45:00,
2013-03-03 11:00:00,36.5,18.2,29.97,NNW,339,3.0,14.0,47,0.00,CLR,,0.00,WeatherDisplay:10.37,2013-03-03 16:00:00,
2013-03-03 11:15:00,37.1,16.6,29.97,WNW,303,6.0,12.0,43,0.00,CLR,,0.00,WeatherDisplay:10.37,2013-03-03 16:15:00,
2013-03-03 11:30:00,36.4,16.5,29.97,NW,324,5.0,12.0,44,0.00,OVC,,0.00,WeatherDisplay:10.37,2013-03-03 16:30:00,
2013-03-03 11:45:00,36.7,16.8,29.96,WNW,294,6.0,17.0,44,0.00,OVC,,0.00,WeatherDisplay:10.37,2013-03-03 16:45:00,
2013-03-03 12:00:00,37.9,17.9,29.95,NW,314,3.0,13.0,44,0.00,OVC,,0.00,WeatherDisplay:10.37,2013-03-03 17:00:00,
2013-03-03 12:15:00,37.8,17.3,29.95,NNW,333,9.0,17.0,43,0.00,OVC,,0.00,WeatherDisplay:10.37,2013-03-03 17:15:00,
2013-03-03 12:30:00,37.7,18.2,29.94,NNW,336,5.0,17.0,45,0.00,BKN,,0.00,WeatherDisplay:10.37,2013-03-03 17:30:00,
2013-03-03 12:45:00,39.1,19.0,29.93,NNW,334,8.0,14.0,44,0.00,BKN,,0.00,WeatherDisplay:10.37,2013-03-03 17:45:00,
2013-03-03 13:00:00,39.2,17.4,29.92,NNW,345,3.0,18.0,41,0.00,BKN,,0.00,WeatherDisplay:10.37,2013-03-03 18:00:00,
2013-03-03 13:15:00,40.3,20.1,29.92,NNW,335,5.0,13.0,44,0.00,BKN,,0.00,WeatherDisplay:10.37,2013-03-03 18:15:00,
2013-03-03 13:30:00,40.4,19.1,29.92,NNW,347,3.0,18.0,42,0.00,CLR,,0.00,WeatherDisplay:10.37,2013-03-03 18:30:00,
2013-03-03 13:45:00,40.0,17.6,29.91,NNW,340,8.0,17.0,40,0.00,CLR,,0.00,WeatherDisplay:10.37,2013-03-03 18:45:00,
2013-03-03 14:00:00,40.3,17.9,29.91,North,354,7.0,20.0,40,0.00,CLR,,0.00,WeatherDisplay:10.37,2013-03-03 19:00:00,
2013-03-03 14:15:00,41.0,19.7,29.91,NW,315,6.0,16.0,42,0.00,CLR,,0.00,WeatherDisplay:10.37,2013-03-03 19:15:00,
2013-03-03 14:30:00,41.4,17.7,29.90,NNW,339,7.0,18.0,38,0.00,FEW,,0.00,WeatherDisplay:10.37,2013-03-03 19:30:00,
2013-03-03 14:45:00,41.2,18.1,29.90,NW,316,3.0,15.0,39,0.00,FEW,,0.00,WeatherDisplay:10.37,2013-03-03 19:45:00,
2013-03-03 15:00:00,41.5,18.9,29.91,NNW,331,8.0,18.0,40,0.00,FEW,,0.00,WeatherDisplay:10.37,2013-03-03 20:00:00,
2013-03-03 15:15:00,42.2,18.4,29.91,NNW,338,7.0,14.0,38,0.00,FEW,,0.00,WeatherDisplay:10.37,2013-03-03 20:15:00,
2013-03-03 15:30:00,41.3,18.2,29.91,NNW,339,6.0,15.0,39,0.00,CLR,,0.00,WeatherDisplay:10.37,2013-03-03 20:30:00,
2013-03-03 15:45:00,40.8,17.2,29.91,NNW,339,3.0,17.0,38,0.00,CLR,,0.00,WeatherDisplay:10.37,2013-03-03 20:45:00,
2013-03-03 16:00:00,40.0,16.4,29.91,NNW,346,9.0,20.0,38,0.00,CLR,,0.00,WeatherDisplay:10.37,2013-03-03 21:00:00,
2013-03-03 16:15:00,40.1,17.7,29.91,NNW,328,5.0,17.0,40,0.00,CLR,,0.00,WeatherDisplay:10.37,2013-03-03 21:15:00,
2013-03-03 16:30:00,41.1,18.0,29.91,NNW,335,7.0,14.0,39,0.00,CLR,,0.00,WeatherDisplay:10.37,2013-03-03 21:30:00,
2013-03-03 16:45:00,39.3,16.4,29.92,NNW,344,7.0,17.0,39,0.00,CLR,,0.00,WeatherDisplay:10.37,2013-03-03 21:45:00,
2013-03-03 17:00:00,38.8,15.9,29.92,NNW,341,6.0,12.0,39,0.00,CLR,,0.00,WeatherDisplay:10.37,2013-03-03 22:00:00,
2013-03-03 17:15:00,38.5,16.2,29.93,NNW,331,6.0,12.0,40,0.00,CLR,,0.00,WeatherDisplay:10.37,2013-03-03 22:15:00,
2013-03-03 17:30:00,38.2,16.0,29.93,NNW,334,5.0,14.0,40,0.00,CLR,,0.00,WeatherDisplay:10.37,2013-03-03 22:30:00,
2013-03-03 17:45:00,37.6,15.4,29.94,NW,323,8.0,23.0,40,0.00,CLR,,0.00,WeatherDisplay:10.37,2013-03-03 22:45:00,
2013-03-03 18:00:00,37.3,15.2,29.94,NW,318,5.0,12.0,40,0.00,CLR,,0.00,WeatherDisplay:10.37,2013-03-03 23:00:00,
2013-03-03 18:15:00,36.6,14.5,29.95,NNW,332,6.0,12.0,40,0.00,CLR,,0.00,WeatherDisplay:10.37,2013-03-03 23:15:00,
2013-03-03 18:30:00,35.6,14.2,29.95,WNW,300,2.0,10.0,41,0.00,CLR,,0.00,WeatherDisplay:10.37,2013-03-03 23:30:00,
2013-03-03 18:45:00,34.7,14.5,29.96,NNW,339,2.0,7.0,43,0.00,CLR,,0.00,WeatherDisplay:10.37,2013-03-03 23:45:00,
2013-03-03 19:00:00,34.4,14.7,29.96,NW,313,5.0,10.0,44,0.00,CLR,,0.00,WeatherDisplay:10.37,2013-03-04 00:00:00,
2013-03-03 19:15:00,34.4,14.7,29.97,NW,326,3.0,12.0,44,0.00,CLR,,0.00,WeatherDisplay:10.37,2013-03-04 00:15:00,
2013-03-03 19:30:00,33.8,14.7,29.98,NW,320,6.0,10.0,45,0.00,CLR,,0.00,WeatherDisplay:10.37,2013-03-04 00:30:00,
2013-03-03 19:45:00,33.2,14.7,29.98,NNW,327,10.0,15.0,46,0.00,CLR,,0.00,WeatherDisplay:10.37,2013-03-04 00:45:00,
2013-03-03 20:00:00,32.5,14.0,29.99,NW,319,5.0,13.0,46,0.00,CLR,,0.00,WeatherDisplay:10.37,2013-03-04 01:00:00,
2013-03-03 20:15:00,32.0,13.6,29.99,NNW,333,7.0,16.0,46,0.00,CLR,,0.00,WeatherDisplay:10.37,2013-03-04 01:15:00,
2013-03-03 20:30:00,31.6,13.2,30.00,NNW,328,3.0,13.0,46,0.00,CLR,,0.00,WeatherDisplay:10.37,2013-03-04 01:30:00,
2013-03-03 20:45:00,31.2,12.8,30.00,NNW,328,2.0,8.0,46,0.00,CLR,,0.00,WeatherDisplay:10.37,2013-03-04 01:45:00,
2013-03-03 21:00:00,30.8,12.9,30.00,NNW,331,3.0,9.0,47,0.00,CLR,,0.00,WeatherDisplay:10.37,2013-03-04 02:00:00,
2013-03-03 21:15:00,30.4,13.0,30.01,NNW,331,3.0,7.0,48,0.00,CLR,,0.00,WeatherDisplay:10.37,2013-03-04 02:15:00,
2013-03-03 21:30:00,30.4,13.0,30.00,NW,323,3.0,10.0,48,0.00,CLR,,0.00,WeatherDisplay:10.37,2013-03-04 02:30:00,
2013-03-03 21:45:00,30.1,13.2,30.01,NW,325,3.0,10.0,49,0.00,CLR,,0.00,WeatherDisplay:10.37,2013-03-04 02:45:00,
2013-03-03 22:00:00,29.6,13.2,30.01,NW,316,3.0,8.0,50,0.00,CLR,,0.00,WeatherDisplay:10.37,2013-03-04 03:00:00,
2013-03-03 22:15:00,29.2,12.9,30.02,NNW,332,2.0,7.0,50,0.00,CLR,,0.00,WeatherDisplay:10.37,2013-03-04 03:15:00,
2013-03-03 22:30:00,28.8,12.9,30.02,NW,323,1.0,6.0,51,0.00,CLR,,0.00,WeatherDisplay:10.37,2013-03-04 03:30:00,
2013-03-03 22:45:00,28.7,12.8,30.02,NW,321,3.0,9.0,51,0.00,CLR,,0.00,WeatherDisplay:10.37,2013-03-04 03:45:00,
2013-03-03 23:00:00,29.0,12.2,30.02,NW,311,3.0,12.0,49,0.00,CLR,,0.00,WeatherDisplay:10.37,2013-03-04 04:00:00,
2013-03-03 23:15:00,29.0,11.7,30.02,NNW,333,5.0,10.0,48,0.00,CLR,,0.00,WeatherDisplay:10.37,2013-03-04 04:15:00,
2013-03-03 23:30:00,28.6,11.4,30.01,NW,314,2.0,9.0,48,0.00,SCT,,0.00,WeatherDisplay:10.37,2013-03-04 04:30:00,
2013-03-03 23:45:00,28.2,11.0,30.01,NW,326,1.0,7.0,48,0.00,SCT,,0.00,WeatherDisplay:10.37,2013-03-04 04:45:00,